TimeCDT,TemperatureF,Dew PointF,Humidity,Sea Level PressureIn,VisibilityMPH,Wind Direction,Wind SpeedMPH,Gust SpeedMPH,PrecipitationIn,Events,Conditions,WindDirDegrees,DateUTC
12:54 AM,57.9,55.9,93,30.04,10.0,Calm,Calm,-,N/A,,Clear,0,2012-11-03 05:54:00
1:54 AM,59.0,55.9,90,30.04,10.0,Calm,Calm,-,N/A,,Clear,0,2012-11-03 06:54:00
2:54 AM,62.1,57.9,86,30.03,10.0,Calm,Calm,-,N/A,,Clear,0,2012-11-03 07:54:00
3:54 AM,59.0,57.0,93,30.04,10.0,SSW,4.6,-,N/A,,Clear,200,2012-11-03 08:54:00
4:54 AM,60.1,57.9,93,30.05,10.0,Calm,Calm,-,N/A,,Clear,0,2012-11-03 09:54:00
5:54 AM,60.1,57.9,93,30.07,10.0,Calm,Calm,-,N/A,,Clear,0,2012-11-03 10:54:00
6:48 AM,60.8,59.0,94,30.10,1.8,Calm,Calm,-,N/A,,Clear,0,2012-11-03 11:48:00
6:54 AM,60.1,59.0,96,30.09,0.2,Calm,Calm,-,N/A,Fog,Fog,0,2012-11-03 11:54:00
7:09 AM,57.2,57.2,100,30.10,0.5,Calm,Calm,-,N/A,Fog,Fog,0,2012-11-03 12:09:00
7:18 AM,59.0,57.2,94,30.10,2.0,Calm,Calm,-,N/A,,Clear,0,2012-11-03 12:18:00
7:30 AM,59.0,57.2,94,30.10,0.8,Calm,Calm,-,N/A,,Clear,0,2012-11-03 12:30:00
7:39 AM,59.0,57.2,94,30.11,0.2,Calm,Calm,-,N/A,Fog,Fog,0,2012-11-03 12:39:00
7:54 AM,57.0,57.0,100,30.11,0.2,Calm,Calm,-,N/A,Fog,Fog,0,2012-11-03 12:54:00
8:01 AM,57.2,57.2,100,30.12,1.2,Calm,Calm,-,N/A,,Overcast,0,2012-11-03 13:01:00
8:04 AM,59.0,57.2,94,30.12,3.0,Calm,Calm,-,N/A,,Overcast,0,2012-11-03 13:04:00
8:15 AM,62.6,60.8,94,30.12,2.0,SW,5.8,-,N/A,,Overcast,230,2012-11-03 13:15:00
8:23 AM,62.6,62.6,100,30.12,0.5,SW,6.9,-,N/A,Fog,Fog,230,2012-11-03 13:23:00
8:51 AM,62.6,62.6,100,30.13,1.2,WSW,3.5,-,N/A,,Overcast,240,2012-11-03 13:51:00
8:54 AM,63.0,63.0,100,30.12,0.8,Calm,Calm,-,N/A,,Overcast,0,2012-11-03 13:54:00
9:49 AM,64.4,64.4,100,30.14,0.8,West,8.1,-,N/A,,Overcast,270,2012-11-03 14:49:00
9:54 AM,66.0,64.0,93,30.13,8.0,Calm,Calm,-,N/A,,Overcast,0,2012-11-03 14:54:00
10:20 AM,69.8,64.4,83,30.14,10.0,West,13.8,18.4,N/A,,Scattered Clouds,270,2012-11-03 15:20:00
10:54 AM,73.0,64.0,73,30.13,10.0,West,5.8,-,N/A,,Partly Cloudy,260,2012-11-03 15:54:00
11:54 AM,75.9,64.0,67,30.12,10.0,WNW,8.1,-,N/A,,Partly Cloudy,290,2012-11-03 16:54:00
12:54 PM,80.1,63.0,56,30.09,10.0,WSW,8.1,-,N/A,,Partly Cloudy,250,2012-11-03 17:54:00
1:54 PM,82.9,59.0,44,30.06,10.0,West,8.1,-,N/A,,Partly Cloudy,260,2012-11-03 18:54:00
2:54 PM,82.9,57.9,42,30.04,10.0,WSW,10.4,-,N/A,,Partly Cloudy,250,2012-11-03 19:54:00
3:54 PM,82.9,55.0,38,30.02,10.0,West,9.2,-,N/A,,Partly Cloudy,270,2012-11-03 20:54:00
4:54 PM,81.0,55.9,42,30.02,10.0,WSW,4.6,-,N/A,,Partly Cloudy,240,2012-11-03 21:54:00
5:54 PM,75.0,55.9,51,30.01,10.0,SSW,5.8,-,N/A,,Clear,210,2012-11-03 22:54:00
6:54 PM,69.1,55.0,61,30.02,10.0,South,8.1,-,N/A,,Clear,180,2012-11-03 23:54:00
7:54 PM,64.9,55.0,70,30.03,10.0,SSW,4.6,-,N/A,,Clear,200,2012-11-04 00:54:00
8:54 PM,66.0,55.0,68,30.04,10.0,SSW,3.5,-,N/A,,Clear,200,2012-11-04 01:54:00
9:54 PM,61.0,55.0,81,30.04,10.0,Calm,Calm,-,N/A,,Clear,0,2012-11-04 02:54:00
10:54 PM,61.0,55.9,83,30.06,10.0,Calm,Calm,-,N/A,,Clear,0,2012-11-04 03:54:00
11:54 PM,61.0,55.9,83,30.06,10.0,Calm,Calm,-,N/A,,Mostly Cloudy,0,2012-11-04 04:54:00